Wind_Speed
24 22 19 17 16 14 13 13 12 11 10 10 9 9 9 10 11 12 13 15 15 16 16 17 17 18 18 19 19 18 18 18 17 16 15 13 12 11 10 10 10 12 14 17
23 20 18 17 15 13 11 10 10 9 8 8 8 7 7 8 9 10 12 14 14 15 16 17 18 18 19 19 19 19 19 19 18 17 16 14 13 12 11 10 10 11 12 14
19 17 18 16 14 12 10 9 8 8 7 6 7 6 6 7 8 10 12 13 14 15 15 16 17 18 18 18 19 19 19 19 19 19 18 17 15 14 13 11 10 10 11 13
20 19 17 14 13 10 8 8 7 7 6 5 5 4 5 6 8 9 11 12 13 14 14 15 16 16 17 18 19 20 20 20 20 19 19 18 17 16 15 13 12 11 11 12
18 16 14 12 11 10 8 7 6 5 5 4 3 2 4 6 8 9 10 11 11 12 13 14 15 16 17 19 20 20 20 20 21 20 19 18 18 17 16 15 14 13 12 12
17 15 12 11 10 9 7 7 6 6 5 3 1 2 4 6 7 8 9 10 11 12 12 13 14 15 16 18 20 21 21 21 21 21 20 19 18 18 17 16 15 14 13 12
15 14 12 10 9 9 8 7 7 7 6 4 2 3 4 5 6 7 8 9 10 11 12 12 14 15 16 18 19 20 21 21 21 21 20 20 20 19 19 18 16 15 13 12
15 13 12 10 9 8 8 7 8 8 7 4 3 3 3 4 5 6 7 8 9 10 11 12 13 15 16 17 18 20 21 22 22 21 21 21 21 21 21 20 18 16 14 12
14 13 12 10 9 8 8 8 7 7 6 5 5 3 3 3 4 5 6 7 8 10 11 12 13 14 16 17 18 19 21 21 22 22 21 21 22 22 22 21 19 18 16 14
11 11 10 9 9 8 8 8 7 7 6 5 5 4 3 2 3 4 6 7 8 9 10 11 13 14 15 16 17 19 20 21 21 22 22 22 22 22 22 22 21 19 18 15
11 10 9 9 9 8 8 8 7 7 6 5 4 4 3 2 2 3 4 6 7 8 10 11 12 14 15 16 17 18 20 20 20 21 22 22 22 22 22 22 22 21 19 17
10 10 9 9 9 9 9 8 7 7 6 5 4 3 2 2 1 2 3 5 7 8 9 11 12 13 15 16 17 18 19 20 20 21 21 22 22 22 22 22 22 21 20 19
10 10 9 9 9 9 9 8 8 7 6 5 3 3 2 2 1 1 3 5 6 8 9 10 12 13 14 16 17 18 18 19 20 20 21 21 22 22 22 21 21 22 21 21
11 10 10 10 10 10 10 9 9 8 7 5 4 3 3 2 1 1 3 4 6 8 9 10 11 13 14 15 16 17 18 18 19 20 20 21 21 21 21 21 21 21 21 21
12 12 12 11 11 10 10 10 9 8 7 6 5 4 4 3 1 1 3 4 6 7 9 10 11 12 14 15 16 17 18 18 19 19 20 20 21 21 21 20 20 20 20 20
11 11 11 11 11 10 11 11 10 9 8 6 5 5 4 3 2 2 3 5 6 8 9 10 11 13 14 15 16 17 17 18 18 19 19 20 20 20 20 20 19 19 19 19
11 12 12 11 12 11 10 11 11 10 8 7 6 5 4 3 3 3 4 6 7 8 9 10 11 12 14 15 16 17 17 18 18 18 19 19 19 19 20 19 19 18 18 18
12 13 12 12 12 11 11 12 11 10 9 8 7 6 5 5 5 5 6 7 8 9 10 11 12 13 14 15 16 17 18 18 19 19 19 19 19 19 19 19 18 18 18 18
14 14 14 13 13 11 11 12 12 11 10 9 8 7 7 6 6 7 8 8 9 10 11 12 13 14 15 16 16 17 18 19 19 19 20 20 19 19 19 19 18 18 17 17
15 15 15 14 14 13 12 13 13 12 11 11 10 9 8 8 9 9 9 10 11 11 12 13 13 14 15 16 17 18 19 20 20 20 21 20 20 20 19 19 18 18 17 17
17 17 17 16 16 14 14 14 14 14 13 12 12 11 11 11 11 12 12 12 13 13 13 14 14 15 16 17 18 19 20 21 22 22 22 21 21 20 20 19 19 18 18 18
19 19 19 18 18 15 16 16 16 15 15 14 14 14 13 13 13 13 14 14 14 14 15 15 15 16 17 18 19 20 21 22 23 23 23 22 22 21 21 20 20 19 19 19
21 21 22 21 20 19 19 18 18 18 18 17 17 17 16 16 15 15 16 15 15 16 16 16 17 17 18 19 21 22 23 23 24 24 24 24 24 23 23 22 21 21 20 20
24 24 24 24 22 22 22 21 20 20 20 20 19 19 18 18 18 18 17 17 17 17 17 18 18 19 20 21 22 23 24 25 25 25 25 25 25 25 24 24 23 23 22 21
26 26 27 26 25 25 25 24 24 23 23 22 21 21 21 20 20 20 19 19 19 19 19 20 20 21 22 23 24 25 26 26 27 27 27 27 26 26 25 25 24 24 23 22
27 29 29 28 27 28 27 27 27 26 25 25 24 24 23 23 22 22 22 21 21 22 22 22 22 23 24 25 25 26 27 27 28 28 28 28 28 27 26 25 25 25 24 24
Wind_Direction
223 226 231 238 244 248 259 275 284 297 311 325 343 353 350 351 359 4 9 10 9 8 8 8 7 5 4 3 2 2 0 0 358 355 350 345 338 332 320 303 288 276 268 262
220 223 226 233 238 245 256 274 284 293 308 326 344 356 359 2 8 14 15 14 11 9 10 11 9 9 8 8 8 8 7 7 7 5 1 356 350 343 334 320 304 290 277 270
217 219 223 227 233 242 253 266 278 297 310 321 338 355 10 16 23 25 21 17 14 13 13 12 12 13 13 12 12 12 12 11 10 8 6 4 1 356 348 337 320 304 291 282
208 212 219 223 229 237 249 259 277 291 299 311 327 354 20 30 32 30 24 18 15 16 16 14 15 16 16 15 14 14 13 12 10 9 7 5 3 358 353 346 335 320 305 294
204 209 213 216 224 234 245 254 265 270 278 286 319 9 41 37 36 35 27 20 18 17 16 16 16 18 17 16 15 14 13 12 11 10 8 6 3 359 356 351 342 332 320 307
197 201 207 215 226 233 241 251 257 257 260 257 284 77 59 42 39 37 30 24 21 18 16 16 17 16 15 15 15 14 12 11 10 10 9 8 5 2 358 354 348 340 331 321
193 199 206 215 224 234 240 245 246 247 246 237 193 109 66 48 43 38 30 25 21 19 17 15 14 14 12 11 11 11 11 11 10 10 10 10 9 6 1 357 353 348 342 333
194 198 203 213 223 233 237 236 236 242 244 220 182 129 81 59 50 42 34 26 21 18 16 14 12 10 9 9 9 9 10 11 11 11 10 10 10 10 8 4 1 357 354 349
189 194 205 215 219 225 228 225 225 230 230 210 182 155 106 77 55 40 31 25 20 16 14 12 9 8 8 8 8 9 9 10 11 11 11 12 12 11 11 11 10 8 6 3
192 193 199 207 215 219 217 213 216 222 224 211 190 175 144 97 53 34 27 22 18 14 10 7 6 6 7 7 8 8 8 9 11 12 13 13 13 14 14 14 16 16 14 11
201 205 206 212 215 210 207 209 216 217 217 214 189 173 160 122 61 33 25 20 14 9 6 5 5 6 7 7 8 8 8 9 10 11 12 13 13 14 15 15 15 16 16 16
218 218 221 222 218 210 207 207 207 209 211 208 193 175 182 155 96 46 26 15 10 6 4 5 6 6 6 6 6 7 8 9 9 10 11 12 13 13 14 15 16 17 18 18
227 231 230 221 213 207 204 202 200 204 209 208 204 188 185 159 103 41 18 12 9 6 5 4 2 2 3 3 4 4 5 6 7 8 9 11 12 13 14 15 17 19 20 20
233 235 230 224 216 208 205 202 202 204 207 206 200 191 188 183 151 23 12 6 2 360 359 359 359 359 -0 1 2 2 2 3 4 6 7 8 8 10 12 14 16 18 20 21
234 235 231 226 223 217 213 209 205 204 204 202 192 186 187 193 203 344 355 354 353 353 353 355 356 356 357 358 359 360 0 0 1 3 4 5 6 7 9 11 14 16 18 19
228 228 226 223 224 219 214 212 211 208 204 202 196 183 190 205 236 303 332 340 341 342 345 347 349 351 353 353 354 355 356 357 358 359 0 2 3 5 6 8 10 12 14 15
226 226 224 223 223 215 209 210 211 211 209 209 207 208 213 231 260 292 311 321 326 330 334 339 341 344 347 347 349 350 351 352 354 355 356 357 359 0 2 3 5 6 8 9
226 226 226 225 224 218 212 214 213 214 216 217 218 222 230 246 267 287 301 309 315 321 326 330 333 336 340 342 344 346 347 348 349 350 351 351 352 354 356 357 358 0 3 4
226 226 226 225 225 216 217 221 222 221 224 227 227 232 242 255 270 283 294 302 308 313 318 321 325 329 333 336 339 341 342 344 344 344 345 345 346 347 349 350 351 353 355 357
230 228 227 226 227 218 219 225 227 227 229 232 235 240 248 259 272 282 291 296 301 306 310 314 318 323 328 331 334 335 336 338 339 338 338 338 339 340 341 342 343 344 345 347
236 234 232 232 232 226 227 231 232 234 232 237 241 247 255 263 271 280 287 292 296 301 305 309 313 318 322 325 328 330 332 333 334 334 334 334 334 334 335 335 335 336 337 338
240 238 237 237 237 236 236 235 237 238 240 244 247 252 258 264 270 276 282 288 292 296 301 305 309 314 317 320 322 325 327 329 330 330 330 329 329 329 329 329 329 329 330 331
243 242 241 241 242 244 243 242 241 242 245 248 252 256 260 265 270 275 280 284 288 293 298 302 305 309 312 315 318 321 323 324 325 326 326 325 325 324 324 324 324 323 322 322
247 246 246 245 245 246 247 247 247 247 249 252 255 258 262 266 270 274 278 281 285 290 295 299 302 304 307 310 313 315 317 319 321 321 322 322 321 321 320 320 319 319 317 317
248 250 251 250 249 249 249 250 250 251 252 255 257 259 263 266 270 273 276 279 283 287 291 294 297 300 303 305 308 311 312 314 317 318 318 319 319 318 316 316 315 314 314 313
249 251 252 252 251 251 250 251 253 253 254 257 259 261 263 266 269 272 274 277 280 284 288 291 294 297 300 303 305 308 310 312 313 314 315 316 317 315 313 311 310 310 309 309
Height
5859 5863 5866 5868 5869 5871 5871 5871 5871 5871 5869 5868 5866 5865 5863 5860 5858 5856 5853 5851 5848 5846 5843 5839 5835 5831 5827 5823 5819 5814 5810 5805 5801 5797 5793 5791 5788 5786 5785 5784 5783 5783 5783 5783
5857 5861 5864 5865 5866 5868 5868 5869 5868 5868 5866 5865 5864 5863 5862 5859 5857 5854 5852 5850 5848 5845 5842 5838 5834 5831 5827 5823 5819 5814 5810 5805 5801 5797 5793 5790 5787 5785 5783 5781 5780 5779 5779 5778
5854 5859 5860 5862 5864 5865 5866 5866 5866 5865 5864 5863 5863 5862 5861 5859 5856 5854 5851 5850 5848 5845 5841 5838 5835 5831 5827 5823 5819 5815 5810 5806 5801 5797 5793 5789 5786 5783 5781 5779 5777 5776 5775 5774
5851 5854 5857 5860 5861 5862 5863 5863 5863 5863 5863 5862 5862 5861 5860 5858 5855 5853 5851 5849 5847 5845 5842 5839 5835 5832 5828 5824 5820 5815 5811 5806 5802 5797 5793 5789 5786 5783 5780 5777 5775 5773 5771 5770
5849 5852 5855 5857 5859 5860 5861 5861 5861 5861 5861 5861 5860 5860 5859 5856 5855 5853 5851 5850 5848 5845 5842 5839 5836 5833 5829 5825 5820 5816 5811 5807 5802 5798 5793 5789 5786 5782 5779 5775 5773 5770 5768 5766
5847 5850 5853 5855 5856 5857 5858 5859 5859 5860 5860 5860 5859 5858 5858 5855 5854 5853 5851 5850 5848 5845 5843 5840 5837 5833 5830 5826 5821 5817 5812 5808 5803 5798 5794 5790 5786 5782 5778 5774 5771 5768 5765 5763
5846 5849 5851 5853 5854 5856 5857 5858 5858 5858 5858 5858 5857 5856 5857 5855 5854 5852 5851 5849 5847 5845 5843 5840 5837 5834 5830 5826 5822 5818 5813 5808 5804 5799 5795 5790 5786 5781 5777 5773 5769 5766 5763 5760
5844 5848 5850 5851 5852 5853 5854 5856 5857 5857 5857 5856 5856 5855 5856 5854 5853 5852 5851 5849 5848 5846 5843 5841 5838 5834 5831 5827 5823 5819 5814 5809 5805 5800 5795 5791 5786 5782 5777 5773 5768 5764 5761 5758
5844 5846 5848 5849 5850 5851 5852 5853 5855 5855 5855 5855 5855 5855 5854 5853 5852 5851 5850 5849 5847 5846 5843 5841 5838 5835 5831 5827 5824 5819 5815 5810 5805 5801 5796 5792 5787 5782 5778 5773 5768 5764 5761 5758
5843 5845 5847 5848 5849 5849 5851 5851 5853 5853 5853 5853 5854 5853 5854 5852 5852 5851 5850 5849 5847 5846 5844 5841 5838 5835 5832 5828 5824 5820 5816 5811 5807 5802 5797 5793 5788 5784 5779 5774 5769 5765 5761 5758
5842 5844 5846 5846 5847 5847 5849 5850 5850 5851 5852 5852 5852 5855 5853 5852 5852 5851 5850 5849 5847 5846 5843 5841 5838 5835 5832 5828 5824 5821 5816 5812 5808 5803 5799 5794 5789 5785 5780 5776 5771 5767 5762 5759
5841 5843 5844 5845 5846 5846 5847 5848 5849 5850 5851 5851 5851 5855 5852 5852 5851 5850 5850 5848 5847 5845 5843 5841 5838 5835 5832 5828 5825 5821 5817 5813 5809 5804 5800 5795 5791 5786 5782 5777 5773 5768 5764 5760
5840 5841 5842 5844 5846 5846 5846 5846 5847 5848 5849 5849 5850 5854 5851 5851 5850 5850 5849 5848 5846 5845 5843 5840 5838 5835 5832 5829 5825 5821 5817 5813 5809 5805 5801 5796 5792 5788 5783 5779 5774 5770 5766 5762
5839 5839 5841 5843 5843 5843 5844 5845 5845 5846 5847 5848 5849 5850 5850 5850 5849 5849 5848 5847 5846 5844 5842 5840 5837 5835 5832 5828 5825 5822 5818 5814 5810 5806 5802 5798 5793 5789 5785 5780 5776 5772 5768 5764
5837 5838 5838 5840 5841 5842 5843 5843 5844 5845 5846 5847 5848 5848 5849 5849 5849 5848 5847 5846 5845 5843 5842 5839 5837 5834 5831 5828 5825 5821 5818 5814 5810 5806 5802 5799 5794 5790 5786 5782 5778 5774 5770 5766
5835 5836 5837 5838 5839 5840 5841 5842 5842 5843 5844 5845 5846 5847 5847 5847 5847 5847 5846 5845 5844 5842 5841 5839 5836 5834 5831 5828 5824 5821 5818 5814 5810 5807 5803 5799 5795 5791 5787 5783 5779 5775 5772 5768
5833 5834 5835 5836 5836 5838 5839 5840 5841 5842 5843 5844 5845 5846 5845 5846 5845 5845 5845 5844 5843 5841 5840 5837 5835 5833 5830 5827 5824 5820 5817 5813 5810 5806 5803 5799 5795 5791 5788 5784 5780 5776 5773 5769
5831 5832 5833 5834 5836 5836 5840 5838 5839 5840 5841 5842 5843 5843 5844 5844 5844 5843 5843 5842 5841 5839 5838 5836 5833 5831 5828 5825 5822 5819 5816 5812 5809 5805 5802 5798 5795 5791 5787 5784 5780 5776 5773 5770
5829 5829 5830 5832 5832 5834 5836 5837 5837 5838 5839 5840 5840 5841 5841 5841 5841 5841 5840 5839 5838 5837 5835 5833 5831 5829 5826 5824 5821 5818 5814 5811 5808 5804 5801 5797 5794 5790 5787 5783 5780 5776 5773 5770
5826 5827 5828 5829 5830 5832 5835 5834 5834 5836 5837 5837 5838 5838 5839 5839 5839 5839 5837 5836 5835 5834 5832 5831 5829 5826 5824 5821 5818 5815 5812 5809 5806 5802 5799 5796 5792 5789 5785 5782 5779 5775 5772 5769
5822 5824 5825 5825 5826 5829 5831 5831 5832 5834 5835 5834 5834 5835 5835 5835 5835 5835 5834 5833 5832 5830 5829 5827 5825 5823 5821 5818 5816 5813 5810 5807 5803 5800 5796 5793 5790 5786 5783 5780 5777 5774 5770 5767
5819 5820 5821 5821 5823 5827 5826 5827 5828 5829 5829 5830 5830 5831 5831 5831 5831 5831 5830 5829 5828 5827 5825 5823 5822 5820 5817 5815 5812 5810 5807 5804 5800 5797 5793 5790 5787 5783 5780 5777 5774 5771 5768 5765
5814 5816 5815 5817 5820 5820 5821 5822 5823 5824 5825 5825 5825 5826 5826 5826 5826 5826 5825 5824 5823 5822 5821 5819 5817 5816 5813 5811 5808 5806 5803 5800 5796 5793 5790 5786 5783 5780 5777 5773 5770 5768 5765 5762
5808 5808 5810 5811 5813 5814 5814 5815 5817 5818 5819 5819 5820 5820 5821 5821 5821 5820 5820 5819 5818 5817 5816 5814 5813 5811 5809 5807 5804 5801 5798 5795 5792 5789 5786 5782 5779 5775 5772 5769 5766 5763 5761 5758
5801 5801 5802 5804 5806 5807 5808 5809 5810 5811 5812 5813 5813 5814 5814 5814 5814 5814 5814 5813 5812 5811 5810 5809 5807 5806 5804 5802 5799 5796 5794 5791 5788 5784 5781 5777 5774 5771 5768 5765 5762 5759 5756 5753
5794 5794 5794 5796 5798 5798 5800 5801 5802 5803 5804 5805 5806 5807 5807 5807 5808 5807 5807 5807 5806 5805 5804 5803 5801 5800 5798 5795 5793 5790 5788 5785 5782 5778 5775 5772 5769 5766 5763 5760 5756 5753 5751 5748